map of PHS home
Great Circle Mapper logo
PHS - Airport
Location
City:  Phitsanulok, Thailand
ICAO / IATA:VTPP / PHS

Details
Type:Airport (Aerodrome, Airfield)
Use:Public/Civil
Latitude:1646'59"N (16.782939)
Longitude:10016'45"E (100.279122)
Datum:WGS 1984
Elevation:154 ft (47 m)
Variation:0.73W (WMM2015 magnetic declination)
0.01 annual change
Runways:1
Longest:9843 × 148 ft (3000 × 45 m), paved

Time
Time Zone:UTC+7
Local Time:

Weather
METAR:VTPP 301400Z 00000KT 5000 BR NSC 24/20 Q1013 A2993
TAF:VTPP 300500Z 3006/3106 14005KT 8000 NSC
BECMG 3012/3014 24005KT 7000 NSC
BECMG 3023/3100 00000KT 4000 BR NSC

Related Locations
Nearby:
Farthest:SJA: 12127 mi / 19516 km
San Juan (San Juan de Marcona), PE

Find:

   beyond  
but within

Other Information
Maps:
NOTAMs:
Links:
Sources:

  
flag of Thailand   

Sectional Chart

Flight Planning
at skyvector.com

Satellite Image

Google Maps Satellite View

 

Copyright © 2004-2015 Karl L. Swartz. All rights reserved.
The Great Circle Mapper name and logo are trademarks of the Great Circle Mapper.
All other trademarks mentioned herein belong to their respective owners.
Please see credits for attibutions and further copyright information.

  Follow gcmap on Facebook Follow gcmap on Twitter

hCard Microformat

Geo Microformat